Regional Weather Roundup
Issued by NWS Cleveland, OH

Home | Current Version | Previous Version | Graphics & Text | Print | Product List | Glossary On
Versions: 1 2 3 4 5 6 7 8 9 10 11 12 13 14 15 16 17 18 19 20 21 22 23 24 25 26 27 28 29 30 31 32 33 34 35 36 37 38 39 40 41 42 43 44 45 46 47 48 49 50
000
ASUS41 KCLE 261300
RWRCLE
OHIO REGIONAL WEATHER ROUNDUP
NATIONAL WEATHER SERVICE WILMINGTON, OH
800 AM EST FRI DEC 26 2014

NOTE: "FAIR" INDICATES FEW OR NO CLOUDS BELOW 12,000 FEET WITH NO
SIGNIFICANT WEATHER AND/OR OBSTRUCTIONS TO VISIBILITY.

OHZ001>008-015>018-024>027-034-035-043-044-261400-
   NORTHWEST OHIO

CITY           SKY/WX    TMP DP  RH WIND       PRES   REMARKS
DEFIANCE       CLEAR     34  30  85 S8        30.14S WCI  27
FINDLAY        CLEAR     35  30  82 S14       30.17R WCI  26
TOLEDO EXPRESS CLEAR     32  29  88 S6        30.14F WCI  26
TOLEDO METCALF CLEAR     32  28  85 S9        30.17S WCI  24
LIMA           CLEAR     34  29  82 S13       30.16S WCI  25
$$

OHZ009>014-019>023-028>033-038-089-261400-
   NORTHEAST OHIO

CITY           SKY/WX    TMP DP  RH WIND       PRES   REMARKS
CLE-HOPKINS    CLEAR     34  29  82 S10       30.23S WCI  26
CLE-LAKEFRONT  CLEAR     35  29  78 SE14      30.20F WCI  26
CUY CO. ARPT   CLEAR     36  30  80 SW12      30.21F
LORAIN-ELYRIA  CLEAR     31  28  89 S9        30.21S WCI  23
ASHTABULA      CLEAR     33  28  81 S9        30.22F WCI  25
AKRON-CANTON   CLEAR     31  26  82 S8        30.23S WCI  23
WOOSTER        NOT AVBL
MANSFIELD      CLEAR     32  29  88 S9        30.21R WCI  24
YOUNGSTOWN     PTCLDY    32  27  81 S6        30.23S WCI  26
$$

OHZ042-051>053-060>062-070>072-077>081-261400-
  SOUTHWEST OHIO

CITY           SKY/WX    TMP DP  RH WIND       PRES   REMARKS
CINC-COVINGTON PTCLDY    31  26  82 S7        30.23R WCI  24
CINC-LUNKEN    PTCLDY    22  21  96 CALM      30.27R
HAMILTON       CLEAR     29  27  92 E5        30.24S WCI  24
DAYTON         NOT AVBL
WRIGHT-PAT AFB CLEAR     30  28  94 S6        30.21S WCI  24
DAYTON GENERAL CLEAR     32  30  92 S9        30.20S WCI  24
WILMINGTON     CLEAR     31  28  89 S7        30.22S WCI  24
$$

OHZ036-037-039>041-045>050-054>059-063>069-073>076-082>088-261400-
  CENTRAL AND SOUTHEAST OHIO

CITY           SKY/WX    TMP DP  RH WIND       PRES   REMARKS
COLUMBUS       PTCLDY    30  27  88 SE6       30.24S WCI  24
OSU AIRPORT    CLEAR     31  28  89 S8        30.23S WCI  23
BOLTON FIELD   CLEAR     28  27  93 SE3       30.24S
RICKENBACK AFB NOT AVBL
NEWARK         CLEAR     26  24  92 CALM      30.25S
MARION         CLEAR     30  27  88 S9        30.21S WCI  22
LANCASTER      CLEAR     30  27  88 SE6       30.26S WCI  24
ZANESVILLE     CLEAR     26  24  92 SE3       30.27S
NEW PHILLY     CLEAR     31  27  85 SE6       30.27S WCI  25
$$


USA.gov is the U.S. government's official web portal to all federal, state and local government web resources and services.